Cincinnati, OH

4:27 PM EDT on March 25, 2017 (GMT -0400)
Cincinnati Municipal-Lunken

Weather History for KLUK - January, 2014

Change the Weather History Date:

Monday, January 13, 2014

  Actual Average Record
Temperature  
Mean Temperature 42 °F -  
Max Temperature 53 °F 40 °F 66 °F (2005)
Min Temperature 30 °F 20 °F -12 °F (1977)
Degree Days  
Heating Degree Days 24    
Moisture  
Dew Point 40 °F    
Average Humidity 81    
Maximum Humidity 96    
Minimum Humidity 54    
Precipitation  
Precipitation 0.13 in - - ()
Sea Level Pressure  
Sea Level Pressure 29.80 in    
Wind  
Wind Speed 8 mph (SW)    
Max Wind Speed 20 mph    
Max Gust Speed 31 mph    
Visibility 9 miles    
Events Rain    
Averages and records for this station are not official NWS values.
T = Trace of Precipitation, MM = Missing Value Source: NWS Daily Summary

Daily Weather History Graph

Daily Weather History Graph

Search for Another Location

Airport or City:

Trip Planner

Search our weather history database for the weather conditions in past years. The results will help you decide how hot, cold, wet, or windy it might be!

Date:

Astronomy

Jan. 13, 2014 Rise Set
Actual Time 7:55 AM EST 5:37 PM EST
Civil Twilight 7:26 AM EST 6:06 PM EST
Nautical Twilight 6:53 AM EST 6:39 PM EST
Astronomical Twilight 6:21 AM EST 7:11 PM EST
Moon 3:51 PM EST (1/13) 5:44 AM EST (1/13)
Length of Visible Light 10h 40m
Length of Day
9h 41m
Waxing Gibbous, 95% of the Moon is Illuminated
Jan 13
Waxing Gibbous
Jan 15
Full
Jan 24
Last Quarter
Jan 30
New
Feb 6
First Quarter

Hourly Weather History & Observations

Time (EST) Temp. Windchill Dew Point Humidity Pressure Visibility Wind Dir Wind Speed Gust Speed Precip Events Conditions
12:53 AM 34.0 °F 28.8 °F 28.0 °F 79% 29.93 in 10.0 mi WSW 5.8 mph - N/A   Clear
1:53 AM 30.9 °F - 27.0 °F 85% 29.93 in 10.0 mi Calm Calm - N/A   Clear
2:53 AM 42.1 °F 34.9 °F 30.0 °F 62% 29.91 in 10.0 mi South 13.8 mph - N/A   Clear
3:53 AM 41.0 °F 37.1 °F 30.0 °F 65% 29.90 in 10.0 mi WSW 5.8 mph - N/A   Clear
4:53 AM 39.9 °F 36.7 °F 30.0 °F 68% 29.89 in 10.0 mi WSW 4.6 mph - N/A   Clear
5:53 AM 39.9 °F 35.8 °F 30.9 °F 70% 29.88 in 10.0 mi WSW 5.8 mph - N/A   Clear
6:53 AM 39.0 °F 35.7 °F 30.9 °F 73% 29.86 in 10.0 mi Variable 4.6 mph - N/A   Clear
7:53 AM 34.0 °F 28.8 °F 30.9 °F 89% 29.83 in 10.0 mi SW 5.8 mph - N/A   Clear
8:53 AM 44.1 °F 38.6 °F 33.1 °F 65% 29.82 in 10.0 mi SSW 10.4 mph - N/A   Mostly Cloudy
9:53 AM 46.9 °F - 34.0 °F 61% 29.81 in 10.0 mi South 9.2 mph - N/A   Mostly Cloudy
10:53 AM 51.1 °F - 35.1 °F 54% 29.81 in 10.0 mi SSW 11.5 mph - N/A   Mostly Cloudy
11:53 AM 53.1 °F - 37.9 °F 57% 29.79 in 10.0 mi SSW 16.1 mph 29.9 mph 0.00 in   Overcast
12:53 PM 52.0 °F - 39.9 °F 63% 29.76 in 10.0 mi SSW 18.4 mph 31.1 mph N/A   Overcast
1:53 PM 52.0 °F - 42.1 °F 69% 29.75 in 10.0 mi SSW 19.6 mph 25.3 mph N/A   Overcast
2:53 PM 51.1 °F - 44.1 °F 77% 29.74 in 10.0 mi SSW 15.0 mph 26.5 mph 0.00 in Rain Light Rain
3:14 PM 50.0 °F - 45.0 °F 83% 29.74 in 3.0 mi SSW 15.0 mph 26.5 mph 0.00 in Rain Light Rain
3:53 PM 48.9 °F - 46.0 °F 90% 29.75 in 10.0 mi South 12.7 mph - 0.02 in Rain Light Rain
4:53 PM 48.0 °F - 46.0 °F 93% 29.75 in 10.0 mi SSW 9.2 mph - 0.03 in Rain Light Rain
5:53 PM 48.0 °F - 46.0 °F 93% 29.74 in 10.0 mi SSW 9.2 mph - 0.01 in Rain Light Rain
6:53 PM 48.0 °F - 46.0 °F 93% 29.74 in 10.0 mi SSW 9.2 mph - 0.02 in   Overcast
7:53 PM 48.9 °F - 46.9 °F 93% 29.76 in 6.0 mi SW 9.2 mph - 0.02 in Rain Light Rain
8:00 PM 48.9 °F - 46.9 °F 93% 29.75 in 4.0 mi SSW 6.9 mph - 0.01 in Rain Light Rain
8:03 PM 48.0 °F - 46.9 °F 96% 29.76 in 4.0 mi SW 8.1 mph - 0.01 in Rain Light Rain
8:10 PM 48.9 °F - 46.9 °F 93% 29.76 in 7.0 mi SW 8.1 mph - 0.01 in Rain Light Rain
8:38 PM 48.0 °F - 46.9 °F 96% 29.76 in 4.0 mi WSW 10.4 mph - 0.02 in Rain Light Rain
8:45 PM 48.9 °F - 46.9 °F 93% 29.75 in 7.0 mi WSW 8.1 mph - 0.02 in Rain Light Rain
8:53 PM 48.0 °F - 46.9 °F 96% 29.76 in 10.0 mi WSW 6.9 mph - 0.02 in Rain Light Rain
9:53 PM 48.0 °F - 45.0 °F 89% 29.76 in 10.0 mi SW 6.9 mph - 0.01 in   Overcast
10:49 PM 46.4 °F 44.3 °F 44.6 °F 93% 29.76 in 10.0 mi SW 4.6 mph - N/A   Overcast
10:53 PM 46.0 °F 43.9 °F 45.0 °F 96% 29.76 in 10.0 mi SW 4.6 mph - N/A   Overcast
11:10 PM 46.0 °F 43.9 °F 44.1 °F 93% 29.77 in 10.0 mi SW 4.6 mph - N/A   Overcast
11:51 PM 48.2 °F - 42.8 °F 82% 29.78 in 10.0 mi Variable 3.5 mph - N/A   Overcast
11:53 PM 48.0 °F - 43.0 °F 83% 29.78 in 10.0 mi Variable 3.5 mph - N/A   Overcast